SL-8 DEB

Satellite information

Favourite Embed

Satellite Type and Status

DEBRISIN ORBIT

Key statistics

Satellite SL-8 DEB at a glance.

Uptime

16291

Days in orbit

Revolutions

≈ 15.0

Per day

Orbit

LEO

Low Earth Orbit

Inclination

74.0

Latest

Satellite identification and parameters

Extended collection of information and parameters for SL-8 DEB.

Object identification

Identified? True

Debris? True

Object name: SL-8 DEB

International designator: 1981-041D

Object number (NORAD): 14346

Object ID (CCSDS): 14346

Country: COMMONWEALTH OF INDEPENDENT STATES (CIS)

Current information (Y/N): Y

RCS size: SMALL

Orbital parameters

Period: 95.971 minutes

Inclination: 74.0301 deg

SMA: 6943.625 km

Apoapsis: 569.778 km

Periapsis: 561.202 km

RAAN: 194.3379 deg

Eccentricy: 0.00061752

Argument of periapsis: 349.109 deg

Mean anomaly: 187.4443 deg

Mean motion: 15.00456451 rev/day

Mean motion (dot): 0.00015233 rev/day2

B* drag term: 0.0012101366 1/REarth

Two-line elements (TLE)

Creation date: Dec. 12, 2025, 10:14 a.m.

Reference frame: TEME

Reference center: EARTH

Epoch: Dec. 12, 2025, 7:46 a.m. UTC

TLE line 0: 0 SL-8 DEB

TLE line 1: 1 14346U 81041D 25346.32421699 .00015233 00000-0 12101-2 0 9999

TLE line 2: 2 14346 74.0301 194.3379 0006175 349.1090 187.4443 15.00456451266642

Live tracking on map

Real-time ground track for satellite SL-8 DEB.

In-orbit conjunctions

A list of the most updated potential collisions computed for object SL-8 DEB.

Target Orbit TCA Probability of collision Miss distance Type
LANDSAT 5 SSO 2025-06-29 01:57:19 0.001741958 53.0 (m) PAYLOAD
CZ-2D R/B SSO 2025-04-08 09:55:06 0.004953944 34.0 (m) ROCKET BODY
INTERCOSMOS 25 HEO 2025-02-21 16:26:24 0.0001712808 80.0 (m) PAYLOAD

Associated space launch

Military communications satellite

SL-8 DEB was lifted into orbit during the mission ‘Kosmos-3M | Strela-2M 24’, on board a Kosmos-3M space rocket.

The launch took place on May 7, 1981, 1:21 p.m. from 132/1 (132L).

For more information about the launch, click the button.

Launch to space Kosmos-3M | Strela-2M 24
Kosmos-3M | Strela-2M 24

Agency: N/A

Status: Launch Successful

Launch date: May 7, 1981, 1:21 p.m. UTC

Rocket: Kosmos-3M

Launch pad: 132/1 (132L)

Location: Plesetsk Cosmodrome, Russian Federation

...

Latest news about this satellite

There are no fresh news available about this satellite. Check back as we update our databases every day.


Newsletter sign-up

Weekly statistics, charts and insights to help you stay on top of the space industry.